| time (UTC) | temp C | wind direction | speed KPH | gust KPH | rain 1hr cm | rain 24hr cm | rain mn cm | humidity % | barometer mb |
| 20260506115306 | 19 | 158 | 0.0 | 3.2 | 0.00 | 0.99 | 0.03 | 60 | 1005.6 |
| 20260506114304 | 19 | 109 | 0.0 | 4.8 | 0.00 | 0.99 | 0.03 | 55 | 1005.8 |
| 20260506113804 | 20 | 115 | 1.6 | 4.8 | 0.00 | 0.99 | 0.03 | 56 | 1005.8 |
| 20260506113304 | 19 | 130 | 1.6 | 4.8 | 0.00 | 0.99 | 0.03 | 56 | 1005.8 |
| 20260506112804 | 19 | 261 | 1.6 | 4.8 | 0.00 | 0.99 | 0.03 | 58 | 1006.0 |
| 20260506112306 | 19 | 117 | 1.6 | 3.2 | 0.00 | 0.99 | 0.03 | 56 | 1006.0 |
| 20260506111803 | 19 | 117 | 1.6 | 3.2 | 0.00 | 0.99 | 0.03 | 58 | 1006.0 |
| 20260506111304 | 19 | 170 | 1.6 | 8.0 | 0.00 | 0.99 | 0.03 | 56 | 1006.0 |
| 20260506110803 | 20 | 125 | 1.6 | 4.8 | 0.00 | 0.99 | 0.03 | 56 | 1006.0 |
| 20260506105803 | 20 | 84 | 3.2 | 8.0 | 0.00 | 0.99 | 0.03 | 61 | 1006.5 |
| 20260506105305 | 20 | 188 | 1.6 | 8.0 | 0.00 | 0.99 | 0.03 | 59 | 1006.5 |
| 20260506104804 | 19 | 171 | 3.2 | 8.0 | 0.00 | 0.99 | 0.03 | 61 | 1006.5 |
| 20260506104304 | 19 | 114 | 1.6 | 4.8 | 0.00 | 0.99 | 0.03 | 64 | 1006.5 |
| 20260506103804 | 19 | 18 | 1.6 | 8.0 | 0.00 | 0.99 | 0.03 | 67 | 1006.5 |
| 20260506102804 | 18 | 107 | 0.0 | 3.2 | 0.00 | 0.99 | 0.03 | 72 | 1006.5 |
| 20260506101803 | 18 | 128 | 1.6 | 3.2 | 0.00 | 0.99 | 0.03 | 65 | 1006.5 |
| 20260506101303 | 18 | 128 | 1.6 | 8.0 | 0.00 | 0.99 | 0.03 | 68 | 1006.5 |
| 20260506100803 | 18 | 170 | 1.6 | 8.0 | 0.00 | 0.99 | 0.03 | 68 | 1006.5 |
| 20260506095804 | 18 | 319 | 1.6 | 4.8 | 0.00 | 0.99 | 0.03 | 69 | 1006.6 |
| 20260506094804 | 18 | 55 | 1.6 | 3.2 | 0.00 | 0.99 | 0.03 | 69 | 1006.6 |
| 20260506094303 | 18 | 55 | 1.6 | 4.8 | 0.00 | 0.99 | 0.03 | 75 | 1006.6 |
| 20260506093804 | 17 | 56 | 3.2 | 8.0 | 0.00 | 0.99 | 0.03 | 74 | 1006.6 |
| 20260506093304 | 18 | 105 | 1.6 | 8.0 | 0.00 | 0.99 | 0.03 | 74 | 1006.6 |
| 20260506092306 | 17 | 168 | 1.6 | 4.8 | 0.00 | 0.99 | 0.03 | 76 | 1006.7 |
| 20260506091804 | 17 | 117 | 1.6 | 4.8 | 0.00 | 0.99 | 0.03 | 75 | 1006.7 |
| 20260506085804 | 15 | 84 | 1.6 | 8.0 | 0.00 | 0.99 | 0.03 | 80 | 1006.7 |
| 20260506085306 | 15 | 115 | 1.6 | 4.8 | 0.00 | 0.99 | 0.03 | 81 | 1006.7 |
| 20260506084805 | 16 | 115 | 0.0 | 3.2 | 0.00 | 0.99 | 0.03 | 81 | 1006.7 |
| 20260506084304 | 15 | 117 | 1.6 | 3.2 | 0.00 | 0.99 | 0.03 | 81 | 1006.7 |
| 20260506083805 | 15 | 120 | 1.6 | 4.8 | 0.00 | 0.99 | 0.03 | 81 | 1006.7 |
| 20260506083304 | 15 | 74 | 1.6 | 4.8 | 0.00 | 0.99 | 0.03 | 82 | 1006.7 |
| 20260506081805 | 15 | 70 | 1.6 | 4.8 | 0.00 | 0.99 | 0.03 | 82 | 1006.7 |
| 20260506081304 | 16 | 84 | 1.6 | 3.2 | 0.00 | 0.99 | 0.03 | 80 | 1006.7 |
| 20260506080804 | 16 | 84 | 1.6 | 3.2 | 0.00 | 0.99 | 0.03 | 81 | 1006.7 |
| 20260506080305 | 16 | 84 | 0.0 | 3.2 | 0.00 | 0.99 | 0.03 | 79 | 1006.7 |
| 20260506073304 | 15 | 110 | 1.6 | 4.8 | 0.00 | 0.99 | 0.03 | 82 | 1006.9 |
| 20260506072805 | 15 | 110 | 0.0 | 1.6 | 0.00 | 0.99 | 0.03 | 84 | 1006.9 |
| 20260506072306 | 14 | 110 | 0.0 | 4.8 | 0.00 | 0.99 | 0.03 | 86 | 1006.9 |
| 20260506071304 | 13 | 110 | 1.6 | 3.2 | 0.00 | 0.99 | 0.03 | 91 | 1007.0 |
| 20260506070303 | 12 | 110 | 1.6 | 4.8 | 0.00 | 0.99 | 0.03 | 94 | 1006.8 |
| 20260506062305 | 11 | 101 | 1.6 | 3.2 | 0.00 | 0.99 | 0.03 | 99 | 1007.0 |
| 20260506061804 | 10 | 101 | 0.0 | 1.6 | 0.00 | 0.99 | 0.03 | 100 | 1007.0 |
| 20260506061303 | 10 | 101 | 0.0 | 1.6 | 0.00 | 0.99 | 0.03 | 100 | 1007.0 |
| 20260506060804 | 10 | 101 | 0.0 | 1.6 | 0.00 | 0.99 | 0.03 | 100 | 1006.8 |
| 20260506060303 | 10 | 101 | 0.0 | 1.6 | 0.00 | 0.99 | 0.03 | 100 | 1006.8 |
| 20260506051303 | 9 | 101 | 0.0 | 3.2 | 0.00 | 0.99 | 0.03 | 100 | 1007.2 |
| 20260506050804 | 8 | 101 | 0.0 | 1.6 | 0.00 | 0.99 | 0.03 | 100 | 1007.2 |
| 20260506050303 | 9 | 101 | 0.0 | 1.6 | 0.00 | 0.99 | 0.03 | 100 | 1007.2 |
| 20260506044804 | 8 | 101 | 0.0 | 3.2 | 0.00 | 0.99 | 0.03 | 100 | 1007.2 |
| 20260506043803 | 8 | 101 | 1.6 | 4.8 | 0.00 | 0.99 | 0.03 | 100 | 1007.2 |
| 20260506043303 | 8 | 101 | 0.0 | 1.6 | 0.00 | 0.99 | 0.03 | 100 | 1007.4 |
| 20260506042803 | 8 | 101 | 0.0 | 0.0 | 0.00 | 0.99 | 0.03 | 100 | 1007.4 |
| 20260506042305 | 8 | 101 | 0.0 | 0.0 | 0.00 | 0.99 | 0.03 | 100 | 1007.4 |
| 20260506041803 | 8 | 101 | 0.0 | 1.6 | 0.00 | 0.99 | 0.03 | 100 | 1007.4 |
| 20260506041304 | 8 | 101 | 0.0 | 0.0 | 0.00 | 0.99 | 0.03 | 100 | 1007.4 |
| 20260506040804 | 8 | 101 | 0.0 | 0.0 | 0.00 | 0.99 | 0.03 | 100 | 1007.4 |
| 20260506040304 | 8 | 101 | 0.0 | 0.0 | 0.00 | 0.99 | 0.03 | 100 | 1007.4 |
| 20260506035803 | 9 | 101 | 0.0 | 0.0 | 0.00 | 0.99 | 0.03 | 100 | 1007.4 |
| 20260506035306 | 9 | 101 | 0.0 | 1.6 | 0.00 | 0.99 | 0.03 | 100 | 1007.5 |
| 20260506034819 | 9 | 101 | 0.0 | 1.6 | 0.00 | 0.99 | 0.03 | 100 | 1007.5 |
| 20260506033303 | 9 | 101 | 1.6 | 3.2 | 0.00 | 0.99 | 0.03 | 100 | 1007.6 |
| 20260506032803 | 9 | 111 | 1.6 | 3.2 | 0.00 | 0.99 | 0.03 | 100 | 1007.6 |
| 20260506032305 | 9 | 124 | 1.6 | 3.2 | 0.00 | 0.99 | 0.03 | 100 | 1007.6 |
| 20260506031804 | 9 | 130 | 1.6 | 3.2 | 0.00 | 0.99 | 0.03 | 100 | 1007.6 |
| 20260506031304 | 9 | 130 | 0.0 | 1.6 | 0.00 | 0.99 | 0.03 | 100 | 1007.6 |
| 20260506030804 | 9 | 130 | 0.0 | 1.6 | 0.00 | 0.99 | 0.03 | 100 | 1007.3 |
| 20260506030303 | 9 | 130 | 1.6 | 4.8 | 0.00 | 0.99 | 0.03 | 100 | 1007.3 |
| 20260506025804 | 9 | 130 | 0.0 | 3.2 | 0.00 | 0.99 | 0.03 | 100 | 1007.3 |
| 20260506025305 | 9 | 298 | 0.0 | 1.6 | 0.00 | 0.99 | 0.03 | 100 | 1007.3 |
| 20260506024304 | 9 | 297 | 0.0 | 1.6 | 0.00 | 0.99 | 0.03 | 100 | 1007.3 |
| 20260506023803 | 9 | 297 | 0.0 | 4.8 | 0.00 | 0.99 | 0.03 | 100 | 1008.1 |
| 20260506023304 | 9 | 95 | 0.0 | 3.2 | 0.00 | 0.99 | 0.03 | 100 | 1008.1 |
| 20260506022305 | 9 | 95 | 0.0 | 1.6 | 0.00 | 0.99 | 0.03 | 100 | 1008.1 |
| 20260506021803 | 9 | 95 | 0.0 | 0.0 | 0.00 | 0.99 | 0.03 | 100 | 1008.1 |
| 20260506021304 | 9 | 95 | 0.0 | 1.6 | 0.00 | 0.99 | 0.03 | 100 | 1008.1 |
| 20260506020803 | 10 | 95 | 0.0 | 1.6 | 0.00 | 0.99 | 0.03 | 100 | 1008.1 |
| 20260506020304 | 10 | 95 | 0.0 | 1.6 | 0.00 | 0.99 | 0.03 | 100 | 1008.1 |
| 20260506015804 | 10 | 95 | 0.0 | 1.6 | 0.00 | 0.99 | 0.03 | 100 | 1008.0 |
| 20260506015306 | 10 | 95 | 1.6 | 3.2 | 0.00 | 0.99 | 0.03 | 100 | 1008.0 |
| 20260506014803 | 10 | 70 | 0.0 | 1.6 | 0.00 | 0.99 | 0.03 | 100 | 1008.0 |
| 20260506014304 | 10 | 70 | 0.0 | 1.6 | 0.03 | 0.99 | 0.03 | 100 | 1008.0 |
| 20260506013304 | 9 | 69 | 0.0 | 3.2 | 0.03 | 0.99 | 0.03 | 100 | 1008.1 |
| 20260506012803 | 9 | 56 | 0.0 | 3.2 | 0.03 | 0.99 | 0.03 | 100 | 1008.1 |
| 20260506012307 | 9 | 56 | 1.6 | 3.2 | 0.03 | 0.99 | 0.03 | 100 | 1008.1 |
| 20260506011804 | 9 | 55 | 1.6 | 3.2 | 0.03 | 0.99 | 0.03 | 100 | 1008.1 |
| 20260506010803 | 9 | 11 | 0.0 | 1.6 | 0.03 | 0.99 | 0.03 | 100 | 1008.1 |
| 20260506010303 | 9 | 11 | 0.0 | 1.6 | 0.03 | 0.99 | 0.03 | 100 | 1008.0 |
| 20260506005803 | 9 | 11 | 0.0 | 1.6 | 0.03 | 0.99 | 0.03 | 100 | 1008.0 |
| 20260506005305 | 9 | 11 | 0.0 | 3.2 | 0.03 | 0.99 | 0.03 | 100 | 1008.0 |
| 20260506004803 | 9 | 11 | 0.0 | 1.6 | 0.03 | 0.99 | 0.03 | 100 | 1008.0 |
| 20260506003804 | 9 | 11 | 0.0 | 0.0 | 0.00 | 0.99 | 0.00 | 100 | 1008.1 |
| 20260506003304 | 9 | 11 | 0.0 | 0.0 | 0.00 | 0.99 | 0.00 | 100 | 1008.2 |
| 20260506002804 | 9 | 11 | 0.0 | 1.6 | 0.00 | 0.99 | 0.00 | 100 | 1008.2 |
| 20260506002306 | 9 | 11 | 0.0 | 1.6 | 0.00 | 0.99 | 0.00 | 100 | 1008.2 |
| 20260506001803 | 9 | 11 | 0.0 | 1.6 | 0.00 | 0.99 | 0.00 | 100 | 1008.2 |
| 20260506001303 | 10 | 11 | 0.0 | 0.0 | 0.00 | 0.99 | 0.00 | 100 | 1008.4 |
| 20260506000804 | 9 | 11 | 0.0 | 1.6 | 0.00 | 0.99 | 0.00 | 100 | 1008.4 |
| 20260506000304 | 10 | 11 | 0.0 | 1.6 | 0.00 | 0.99 | 0.00 | 100 | 1008.8 |
| 20260505235803 | 9 | 11 | 0.0 | 0.0 | 0.00 | 0.99 | 0.00 | 100 | 1008.8 |
| 20260505235319 | 10 | 11 | 0.0 | 0.0 | 0.00 | 0.99 | 0.00 | 100 | 1008.8 |
| 20260505234804 | 10 | 11 | 0.0 | 1.6 | 0.00 | 0.99 | 0.00 | 100 | 1008.8 |
| 20260505234304 | 10 | 11 | 0.0 | 1.6 | 0.00 | 0.99 | 0.00 | 100 | 1008.8 |
| 20260505233804 | 10 | 11 | 0.0 | 1.6 | 0.00 | 0.99 | 0.00 | 100 | 1008.8 |
| 20260505233303 | 10 | 11 | 0.0 | 1.6 | 0.00 | 0.99 | 0.00 | 100 | 1008.8 |
| 20260505232803 | 10 | 11 | 0.0 | 1.6 | 0.00 | 0.99 | 0.00 | 100 | 1008.8 |
| 20260505232305 | 10 | 11 | 0.0 | 1.6 | 0.00 | 0.99 | 0.00 | 100 | 1008.8 |
| 20260505231803 | 10 | 11 | 0.0 | 0.0 | 0.00 | 0.99 | 0.00 | 100 | 1008.8 |
| 20260505231303 | 10 | 11 | 0.0 | 1.6 | 0.00 | 0.99 | 0.00 | 100 | 1008.7 |
| 20260505230803 | 10 | 11 | 0.0 | 1.6 | 0.00 | 0.99 | 0.00 | 100 | 1008.7 |
| 20260505230304 | 10 | 11 | 0.0 | 0.0 | 0.00 | 0.99 | 0.00 | 100 | 1008.7 |
| 20260505225804 | 10 | 11 | 0.0 | 1.6 | 0.00 | 0.99 | 0.00 | 100 | 1008.6 |
| 20260505225305 | 10 | 11 | 0.0 | 0.0 | 0.00 | 0.99 | 0.00 | 100 | 1008.6 |
| 20260505224803 | 10 | 11 | 0.0 | 1.6 | 0.00 | 0.99 | 0.00 | 100 | 1008.6 |
| 20260505224304 | 10 | 11 | 0.0 | 0.0 | 0.00 | 0.99 | 0.00 | 100 | 1008.5 |
| 20260505223803 | 10 | 11 | 0.0 | 0.0 | 0.00 | 0.99 | 0.00 | 100 | 1008.5 |
| 20260505223303 | 10 | 11 | 0.0 | 1.6 | 0.00 | 0.99 | 0.00 | 100 | 1008.5 |
| 20260505222305 | 10 | 11 | 0.0 | 0.0 | 0.00 | 0.99 | 0.00 | 100 | 1008.6 |
| 20260505221804 | 10 | 11 | 0.0 | 1.6 | 0.00 | 0.99 | 0.00 | 100 | 1008.5 |
| 20260505220810 | 11 | 11 | 0.0 | 0.0 | 0.00 | 0.99 | 0.00 | 100 | 1008.5 |
| 20260505215803 | 11 | 11 | 0.0 | 0.0 | 0.00 | 0.99 | 0.99 | 100 | 1008.5 |
| 20260505215305 | 11 | 11 | 0.0 | 0.0 | 0.00 | 0.99 | 0.99 | 99 | 1008.5 |
| 20260505213803 | 11 | 11 | 0.0 | 3.2 | 0.00 | 0.99 | 0.99 | 99 | 1008.6 |
| 20260505213304 | 11 | 11 | 0.0 | 1.6 | 0.00 | 0.99 | 0.99 | 99 | 1008.4 |
| 20260505212803 | 12 | 11 | 0.0 | 1.6 | 0.00 | 0.99 | 0.99 | 98 | 1008.4 |
| 20260505212305 | 12 | 11 | 0.0 | 1.6 | 0.00 | 0.99 | 0.99 | 98 | 1008.4 |
| 20260505211303 | 12 | 11 | 0.0 | 3.2 | 0.00 | 0.99 | 0.99 | 98 | 1008.4 |
| 20260505210804 | 12 | 334 | 0.0 | 1.6 | 0.00 | 0.99 | 0.99 | 98 | 1008.4 |
| 20260505210304 | 12 | 334 | 0.0 | 1.6 | 0.00 | 0.99 | 0.99 | 98 | 1008.4 |
| 20260505205803 | 12 | 334 | 0.0 | 1.6 | 0.00 | 0.99 | 0.99 | 97 | 1008.4 |
| 20260505205305 | 12 | 334 | 1.6 | 1.6 | 0.00 | 0.99 | 0.99 | 97 | 1008.4 |
| 20260505204803 | 12 | 334 | 0.0 | 3.2 | 0.00 | 0.99 | 0.99 | 97 | 1008.4 |
| 20260505204303 | 12 | 334 | 0.0 | 3.2 | 0.00 | 0.99 | 0.99 | 96 | 1008.3 |
| 20260505203803 | 12 | 329 | 1.6 | 3.2 | 0.00 | 0.99 | 0.99 | 96 | 1008.3 |
| 20260505203303 | 12 | 333 | 1.6 | 3.2 | 0.00 | 0.99 | 0.99 | 96 | 1008.3 |
| 20260505202804 | 12 | 294 | 3.2 | 4.8 | 0.00 | 0.99 | 0.99 | 95 | 1008.3 |
| 20260505202306 | 12 | 316 | 1.6 | 8.0 | 0.00 | 0.99 | 0.99 | 96 | 1008.2 |
| 20260505200804 | 12 | 80 | 1.6 | 8.0 | 0.00 | 0.99 | 0.99 | 97 | 1008.1 |
| 20260505200303 | 12 | 126 | 0.0 | 3.2 | 0.00 | 0.99 | 0.99 | 98 | 1008.0 |
| 20260505195803 | 12 | 129 | 0.0 | 1.6 | 0.00 | 0.99 | 0.99 | 98 | 1008.0 |
| 20260505194805 | 12 | 129 | 0.0 | 1.6 | 0.00 | 0.99 | 0.99 | 99 | 1008.0 |
| 20260505194304 | 12 | 129 | 0.0 | 1.6 | 0.00 | 0.99 | 0.99 | 99 | 1007.8 |
| 20260505193303 | 13 | 124 | 0.0 | 0.0 | 0.00 | 0.99 | 0.99 | 99 | 1007.7 |
| 20260505192803 | 13 | 124 | 0.0 | 0.0 | 0.00 | 0.99 | 0.99 | 99 | 1007.7 |
| 20260505192305 | 13 | 124 | 0.0 | 1.6 | 0.00 | 0.99 | 0.99 | 100 | 1007.7 |
| 20260505191803 | 13 | 124 | 0.0 | 1.6 | 0.00 | 0.99 | 0.99 | 99 | 1007.7 |
| 20260505191303 | 13 | 124 | 0.0 | 1.6 | 0.00 | 0.99 | 0.99 | 100 | 1007.7 |
| 20260505190804 | 13 | 124 | 0.0 | 1.6 | 0.00 | 0.99 | 0.99 | 99 | 1007.6 |
| 20260505190304 | 13 | 124 | 0.0 | 1.6 | 0.00 | 0.99 | 0.99 | 99 | 1007.6 |
| 20260505185804 | 13 | 124 | 0.0 | 0.0 | 0.00 | 0.99 | 0.99 | 99 | 1007.5 |
| 20260505184804 | 13 | 124 | 0.0 | 0.0 | 0.03 | 0.99 | 0.99 | 99 | 1007.5 |
| 20260505184303 | 13 | 124 | 0.0 | 0.0 | 0.03 | 0.99 | 0.99 | 98 | 1007.5 |
| 20260505183804 | 13 | 124 | 0.0 | 1.6 | 0.05 | 0.99 | 0.99 | 98 | 1007.5 |
| 20260505183304 | 13 | 124 | 0.0 | 1.6 | 0.05 | 0.99 | 0.99 | 98 | 1007.5 |
| 20260505182803 | 13 | 124 | 0.0 | 0.0 | 0.08 | 0.99 | 0.99 | 98 | 1007.5 |
| 20260505182306 | 13 | 124 | 0.0 | 1.6 | 0.10 | 0.99 | 0.99 | 98 | 1007.5 |
| 20260505181803 | 13 | 124 | 0.0 | 1.6 | 0.13 | 0.99 | 0.99 | 98 | 1007.5 |
| 20260505181303 | 13 | 124 | 0.0 | 1.6 | 0.15 | 0.99 | 0.99 | 98 | 1007.5 |
| 20260505180804 | 14 | 124 | 0.0 | 1.6 | 0.15 | 0.99 | 0.99 | 98 | 1007.4 |
| 20260505180304 | 14 | 124 | 0.0 | 1.6 | 0.15 | 0.99 | 0.99 | 98 | 1007.4 |
| 20260505175804 | 14 | 124 | 0.0 | 3.2 | 0.15 | 0.99 | 0.99 | 98 | 1007.4 |
| 20260505175305 | 14 | 124 | 1.6 | 3.2 | 0.15 | 0.99 | 0.99 | 98 | 1007.5 |
| 20260505174803 | 14 | 124 | 0.0 | 1.6 | 0.13 | 0.97 | 0.97 | 96 | 1007.5 |
| 20260505174304 | 14 | 124 | 0.0 | 0.0 | 0.13 | 0.97 | 0.97 | 96 | 1007.5 |
| 20260505173804 | 14 | 124 | 0.0 | 1.6 | 0.10 | 0.94 | 0.94 | 96 | 1007.5 |
| 20260505173303 | 14 | 124 | 0.0 | 3.2 | 0.08 | 0.91 | 0.91 | 96 | 1007.5 |
| 20260505172305 | 15 | 124 | 0.0 | 1.6 | 0.05 | 0.89 | 0.89 | 92 | 1007.2 |
| 20260505171803 | 15 | 124 | 1.6 | 3.2 | 0.03 | 0.86 | 0.86 | 92 | 1007.2 |
| 20260505171304 | 15 | 124 | 0.0 | 1.6 | 0.00 | 0.84 | 0.84 | 87 | 1007.2 |
| 20260505170803 | 15 | 124 | 0.0 | 1.6 | 0.00 | 0.84 | 0.84 | 86 | 1007.2 |
| 20260505170303 | 16 | 124 | 0.0 | 1.6 | 0.00 | 0.84 | 0.84 | 86 | 1007.2 |
| 20260505165804 | 16 | 124 | 0.0 | 1.6 | 0.00 | 0.84 | 0.84 | 86 | 1007.2 |
| 20260505165306 | 16 | 124 | 1.6 | 3.2 | 0.00 | 0.84 | 0.84 | 87 | 1007.2 |
| 20260505164803 | 16 | 106 | 1.6 | 3.2 | 0.00 | 0.84 | 0.84 | 85 | 1007.2 |
| 20260505164303 | 16 | 106 | 0.0 | 1.6 | 0.00 | 0.84 | 0.84 | 86 | 1007.2 |
| 20260505163803 | 16 | 106 | 0.0 | 1.6 | 0.00 | 0.84 | 0.84 | 87 | 1007.2 |
| 20260505163304 | 16 | 106 | 0.0 | 0.0 | 0.00 | 0.84 | 0.84 | 88 | 1007.3 |
| 20260505162804 | 16 | 106 | 0.0 | 1.6 | 0.00 | 0.84 | 0.84 | 87 | 1007.3 |
| 20260505162306 | 16 | 105 | 0.0 | 4.8 | 0.00 | 0.84 | 0.84 | 84 | 1007.3 |
| 20260505161804 | 17 | 106 | 0.0 | 4.8 | 0.00 | 0.84 | 0.84 | 83 | 1007.3 |
| 20260505161303 | 17 | 106 | 1.6 | 3.2 | 0.00 | 0.84 | 0.84 | 83 | 1007.3 |
| 20260505160803 | 17 | 106 | 1.6 | 3.2 | 0.00 | 0.84 | 0.84 | 85 | 1007.4 |
| 20260505160303 | 17 | 107 | 1.6 | 3.2 | 0.00 | 0.84 | 0.84 | 85 | 1007.5 |
| 20260505153303 | 17 | 40 | 0.0 | 4.8 | 0.03 | 0.84 | 0.84 | 84 | 1007.5 |
| 20260505152804 | 17 | 40 | 0.0 | 1.6 | 0.03 | 0.84 | 0.84 | 85 | 1007.5 |
| 20260505151803 | 16 | 40 | 1.6 | 3.2 | 0.03 | 0.84 | 0.84 | 89 | 1007.8 |
| 20260505151304 | 16 | 41 | 1.6 | 4.8 | 0.03 | 0.84 | 0.84 | 91 | 1007.8 |
| 20260505150803 | 15 | 36 | 1.6 | 8.0 | 0.03 | 0.84 | 0.84 | 90 | 1007.8 |
| 20260505150304 | 15 | 314 | 1.6 | 3.2 | 0.03 | 0.84 | 0.84 | 92 | 1007.8 |
| 20260505130304 | 13 | 298 | 6.4 | 12.9 | 0.71 | 0.71 | 0.71 | 95 | 1008.5 |
| 20260505124804 | 15 | 315 | 4.8 | 14.5 | 0.28 | 0.28 | 0.28 | 90 | 1007.7 |
| 20260505124303 | 17 | 293 | 4.8 | 19.3 | 0.05 | 0.05 | 0.05 | 80 | 1007.7 |
| 20260505123804 | 19 | 279 | 4.8 | 16.1 | 0.00 | 0.00 | 0.00 | 67 | 1007.7 |
| 20260505122803 | 20 | 43 | 1.6 | 4.8 | 0.00 | 0.00 | 0.00 | 63 | 1007.5 |
| 20260505122305 | 20 | 57 | 0.0 | 4.8 | 0.00 | 0.00 | 0.00 | 62 | 1007.5 |
| 20260505121304 | 20 | 36 | 1.6 | 4.8 | 0.00 | 0.00 | 0.00 | 64 | 1007.5 |
| 20260505120803 | 20 | 36 | 1.6 | 8.0 | 0.00 | 0.00 | 0.00 | 63 | 1007.5 |
| 20260505120311 | 21 | 18 | 0.0 | 8.0 | 0.00 | 0.00 | 0.00 | 62 | 1007.7 |
| 20260505115804 | 21 | 13 | 0.0 | 1.6 | 0.00 | 0.00 | 0.00 | 64 | 1007.7 |